Regional Weather Roundup
Issued by NWS Sterling, VA

Home | Current Version | Previous Version | Text Only | Print | Product List | Glossary On
Versions: 1 2 3 4 5 6 7 8 9 10 11 12 13 14 15 16 17 18 19 20 21 22 23 24 25 26 27 28 29 30 31 32 33 34 35 36 37 38 39 40 41 42 43 44
000
ASUS41 KLWX 220010
RWRLWX

REGIONAL WEATHER ROUNDUP
NATIONAL WEATHER SERVICE BALTIMORE MD/WASHINGTON DC
800 PM EDT TUE OCT 21 2014

Note: "FAIR" indicates few or no clouds below 12,000 feet
with no significant weather and/or obstructions to visibility.
 TC=TEMPERATURE CELSIUS

 * =Non NWS site. Station does not report precipitation (e.g. rain,
    snow, etc.), thunder, or fog.

DCZ001-MDZ009-015-VAZ040>042-051-053>054-220100-
WASHINGTON METRO

CITY           SKY/WX    TMP DP  RH WIND       PRES   REMARKS
WASHINGTON NAT LGT RAIN  59  51  75 N7        29.89R
DULLES         RAIN      54  52  93 NW7       29.90R FOG
ANDREWS AFB    CLOUDY    55  54  94 NW9       29.88R
FT BELVOIR     CLOUDY    56  53  90 NW5       29.86S
QUANTICO       HVY RAIN  56  52  86 NW12      29.90R FOG
COLLEGE PARK*  CLOUDY    55  54  94 N3        29.88R
LEESBURG*      LGT RAIN  54  54 100 N5        29.90R
GAITHERSBURG*  CLOUDY    54  46  76 NW5       29.91S

$$

MDZ006>007-011-014-220100-
BALTIMORE METRO

CITY           SKY/WX    TMP DP  RH WIND       PRES   REMARKS
BWI AIRPORT    LGT RAIN  55  54  94 NW13      29.86R FOG
MD SCIENCE CTR   N/A     57  54  89 MISG      29.88R
MARTIN STATE   MOCLDY    61  54  77 W7        29.86R
ANNAPOLIS      LGT RAIN  60  52  74 W7        29.86R
FORT MEADE*    CLOUDY    54  52  94 NW7       29.89S

$$

MDZ012-015-019>023-220100-
MARYLAND EASTERN SHORE

CITY           SKY/WX    TMP DP  RH WIND       PRES   REMARKS
OCEAN CITY     CLEAR     57  55  93 SW3       29.83R
SALISBURY      CLEAR     58  51  78 CALM      29.82R
BAY BRIDGE AP* LGT RAIN  61  50  67 CALM      29.84R
CAMBRIDGE*     MOCLDY    59  52  77 CALM      29.82S
EASTON*        MOCLDY    59  54  82 CALM      29.87R

$$

MDZ017>025-220100-
SOUTHERN MARYLAND

CITY           SKY/WX    TMP DP  RH WIND       PRES   REMARKS
PATUXENT RIVER LGT RAIN  57  53  86 W5        29.84R FOG
ST INIGOES     CLOUDY    62  47  57 NW6       29.83R
LEONARDTOWN*   CLOUDY    55  52  88 CALM      29.87R

$$

MDZ003>005-220100-
NORTH CENTRAL MARYLAND

CITY           SKY/WX    TMP DP  RH WIND       PRES   REMARKS
FREDERICK*     CLOUDY    57  50  77 VRB5      29.92R
HAGERSTOWN APT CLOUDY    52  49  89 NE3       29.90S
WESTMINSTER*   LGT RAIN  54  50  87 W5        29.89R

$$

MDZ501>502-220100-
WESTERN MARYLAND

CITY           SKY/WX    TMP DP  RH WIND       PRES   REMARKS
OAKLAND*       FOG       41 N/A N/A N7        29.93R VSB 1/4
CUMBERLAND*    CLOUDY    52  50  93 CALM      29.96R

$$

VAZ025>031-220100-
SHENANDOAH VALLEY

CITY           SKY/WX    TMP DP  RH WIND       PRES   REMARKS
WINCHESTER*    CLOUDY    54  46  76 NW6       29.91R
FRONT ROYAL*   CLOUDY    52  50  93 CALM      29.91R
LURAY*         CLOUDY    54  46  76 W3        29.91S
NEW MARKET*    CLOUDY    49  49  99 CALM      29.92R
STAUNTON*      CLOUDY    53  49  86 N5        29.93R
WAYNESBORO*    CLOUDY    52  46  80 N5        29.90R

$$

WVZ021-048>050-054>055-220100-
EASTERN WEST VIRGINIA PANHANDLE

CITY           SKY/WX    TMP DP  RH WIND       PRES   REMARKS
MARTINSBURG    LGT RAIN  53  47  79 N6        29.91R
PETERSBURG*    DRIZZLE  N/A N/A N/A CALM      29.95R

$$

VAZ036>039-050-220100-
CENTRAL FOOTHILLS

CITY           SKY/WX    TMP DP  RH WIND       PRES   REMARKS
CHARLOTTESVILL CLOUDY    56  47  71 N3        29.89R
CULPEPER*      RAIN      54  52  94 N5        29.91R
ORANGE*        CLOUDY    54  52  94 NW6       29.90S
GORDONSVILLE*  CLOUDY    54  51  90 CALM      29.90R
WARRENTON*     HVY RAIN  55  55 100 N5        29.90R

$$

VAZ055>057-220100-
NORTH AND CENTRAL PIEDMONT

CITY           SKY/WX    TMP DP  RH WIND       PRES   REMARKS
FREDERICKSBRG* LGT RAIN  56  56  99 NW6       29.89S
STAFFORD*      RAIN      54  54 100 NW7       29.93R

$$

NCZ024-NYZ072-PAZ021-071-VAZ022-071-220100-
OTHER REGIONAL OBSERVATIONS

CITY           SKY/WX    TMP DP  RH WIND       PRES   REMARKS
NEW YORK CITY  MOCLDY    62  50  64 NE6       29.90R
PHILADELPHIA   CLOUDY    65  48  54 NW6       29.85R
PITTSBURGH     CLOUDY    48  44  86 NW10      29.98R
ROANOKE        MOCLDY    52  38  58 NW9G17    29.97R
RICHMOND       CLOUDY    60  52  74 N16G22    29.86R
RALEIGH        MOCLDY    65  45  48 VRB6      29.90R

$$

ANZ530>537-220100-
MARINE OBSERVATIONS

STATION/POSITION TIME  TEMP    WIND        PRES
                       AIR SEA DIR/SP/G
                 (UTC) (F)     (DEG/KT/KT) (MB)
THOMAS PT LIGHT  0000   58 64  260/ 17/ 19 1012.1R
BALT KEY BRIDGE  0000   57     270/  8/ 12 1011.1R
COVE POINT       0000   58     290/ 12/ 16 1010.7R
LEWISETTA        0000   62 66  300/  6/  7 1010.1R
SOLOMONS ISLAND  0000      66                N/A
PINEY POINT      0000           10/  8/ 10   N/A

$$




USA.gov is the U.S. government's official web portal to all federal, state and local government web resources and services.